Weather History for KPAH - January, 2012

Change the Weather History Date:

Tuesday, January 10, 2012

  Actual Average Record
Temperature  
Mean Temperature 41 °F 34 °F  
Max Temperature 55 °F 43 °F 70 °F (1949)
Min Temperature 27 °F 26 °F -8 °F (1982)
Degree Days  
Heating Degree Days 24 31  
Month to date heating degree days 239 307  
Since 1 July heating degree days 1645 1938  
Cooling Degree Days 0 0  
Month to date cooling degree days 0 0  
Year to date cooling degree days 0 0  
Moisture  
Dew Point 34 °F    
Average Humidity 64    
Maximum Humidity 92    
Minimum Humidity 35    
Precipitation  
Precipitation 0.81 in 0.12 in 1.89 in (2006)
Month to date precipitation 1.02 1.21  
Year to date precipitation 1.02 1.21  
Snow  
Snow 0.00 in 0.10 in 2.50 in (1954)
Month to date snowfall 0.0 0.9  
Since 1 July snowfall 0.3 3.2  
Snow Depth 0.00 in    
Sea Level Pressure  
Sea Level Pressure 29.92 in    
Wind  
Wind Speed 6 mph (East)    
Max Wind Speed 15 mph    
Max Gust Speed 18 mph    
Visibility 7 miles    
Events Rain    
T = Trace of Precipitation, MM = Missing Value Source: NWS Daily Summary

Daily Weather History Graph

Daily Weather History Graph

Search for Another Location

Airport or City:

Trip Planner

Search our weather history database for the weather conditions in past years. The results will help you decide how hot, cold, wet, or windy it might be!

Date:

Astronomy

Jan. 10, 2012 Rise Set
Actual Time 7:08 AM CST 4:56 PM CST
Civil Twilight 6:40 AM CST 5:25 PM CST
Nautical Twilight 6:07 AM CST 5:57 PM CST
Astronomical Twilight 5:36 AM CST 6:28 PM CST
Moon 6:45 PM CST (1/10) 7:49 AM CST (1/10)
Length of Visible Light 10h 45m
Length of Day
9h 47m
Full, 98% of the Moon is Illuminated
Jan 10
Full
Jan 16
Last Quarter
Jan 23
New
Jan 30
First Quarter
Feb 7
Full

Hourly Weather History & Observations

Time (CST) Temp. Windchill Dew Point Humidity Pressure Visibility Wind Dir Wind Speed Gust Speed Precip Events Conditions
12:53 AM 30.0 °F 26.5 °F 27.0 °F 88% 30.12 in 8.0 mi NNE 3.5 mph - N/A   Clear
1:53 AM 30.0 °F - 27.0 °F 88% 30.12 in 10.0 mi Calm Calm - N/A   Clear
2:53 AM 28.9 °F - 26.1 °F 89% 30.12 in 10.0 mi Calm Calm - N/A   Clear
3:53 AM 30.0 °F - 26.1 °F 85% 30.11 in 8.0 mi Calm Calm - N/A   Clear
4:53 AM 27.0 °F - 24.1 °F 89% 30.11 in 9.0 mi Calm Calm - N/A   Clear
5:53 AM 28.0 °F - 26.1 °F 92% 30.12 in 7.0 mi Calm Calm - N/A   Clear
6:53 AM 28.0 °F - 25.0 °F 88% 30.11 in 8.0 mi Calm Calm - N/A   Clear
7:53 AM 28.9 °F - 27.0 °F 92% 30.10 in 6.0 mi Calm Calm - N/A   Clear
8:53 AM 35.1 °F - 33.1 °F 92% 30.10 in 6.0 mi Calm Calm - N/A   Clear
9:53 AM 43.0 °F 40.3 °F 35.1 °F 74% 30.09 in 9.0 mi ENE 4.6 mph - N/A   Clear
10:53 AM 48.9 °F - 30.9 °F 50% 30.06 in 10.0 mi East 11.5 mph - N/A   Clear
11:53 AM 52.0 °F - 28.0 °F 40% 30.02 in 10.0 mi ENE 11.5 mph - N/A   Clear
12:53 PM 52.0 °F - 26.1 °F 37% 29.99 in 10.0 mi East 10.4 mph - N/A   Mostly Cloudy
1:53 PM 54.0 °F - 26.1 °F 34% 29.94 in 10.0 mi ENE 12.7 mph - N/A   Overcast
2:53 PM 52.0 °F - 26.1 °F 37% 29.91 in 10.0 mi East 10.4 mph - N/A   Clear
3:53 PM 52.0 °F - 28.9 °F 41% 29.88 in 10.0 mi East 8.1 mph - N/A   Overcast
4:53 PM 51.1 °F - 28.9 °F 43% 29.87 in 10.0 mi East 9.2 mph - N/A   Overcast
5:53 PM 50.0 °F - 30.9 °F 48% 29.86 in 10.0 mi East 9.2 mph - 0.00 in Rain Light Rain
6:53 PM 44.1 °F 40.8 °F 39.0 °F 82% 29.85 in 4.0 mi East 5.8 mph - 0.10 in Rain Rain
7:06 PM 44.6 °F 39.2 °F 39.2 °F 81% 29.83 in 2.0 mi East 10.4 mph - 0.08 in Rain Heavy Rain
7:14 PM 44.6 °F 38.8 °F 39.2 °F 81% 29.83 in 2.0 mi East 11.5 mph - 0.19 in Rain Heavy Rain
7:34 PM 42.8 °F 37.5 °F 41.0 °F 93% 29.83 in 5.0 mi East 9.2 mph - 0.27 in Rain Light Rain
7:53 PM 44.1 °F 39.5 °F 41.0 °F 89% 29.82 in 10.0 mi ENE 8.1 mph - 0.27 in   Overcast
8:17 PM 44.6 °F 40.2 °F 41.0 °F 87% 29.80 in 10.0 mi ENE 8.1 mph - N/A   Overcast
8:53 PM 44.1 °F 39.5 °F 41.0 °F 89% 29.78 in 8.0 mi East 8.1 mph - 0.01 in Rain Light Rain
9:53 PM 44.1 °F 39.5 °F 42.1 °F 93% 29.74 in 9.0 mi ENE 8.1 mph - 0.02 in Rain Light Rain
10:53 PM 44.1 °F 40.8 °F 43.0 °F 96% 29.72 in 3.0 mi East 5.8 mph - 0.12 in Rain Rain
11:17 PM 44.6 °F 40.2 °F 42.8 °F 93% 29.70 in 2.5 mi East 8.1 mph - 0.12 in Rain Heavy Rain
11:26 PM 44.6 °F 40.7 °F 42.8 °F 93% 29.70 in 3.0 mi East 6.9 mph - 0.16 in Rain Rain
11:34 PM 44.6 °F 40.2 °F 42.8 °F 93% 29.70 in 3.0 mi East 8.1 mph - 0.19 in Rain Rain
11:51 PM 44.6 °F 40.7 °F 42.8 °F 93% 29.69 in 2.5 mi East 6.9 mph - 0.25 in Rain Rain
11:53 PM 44.1 °F 40.1 °F 43.0 °F 96% 29.69 in 2.5 mi East 6.9 mph - 0.26 in Rain Rain